Time,TemperatureF,DewpointF,PressureIn,WindDirection,WindDirectionDegrees,WindSpeedMPH,WindSpeedGustMPH,Humidity,HourlyPrecipIn,Conditions,Clouds,dailyrainin,SolarRadiationWatts/m^2,SoftwareType,DateUTC
2013-09-18 00:01:00,63.0,51.0,-100.00,North,8,0.0,0.0,65,0.00,,,0.00,0.000000,,2013-09-18 07:01:00,
2013-09-18 00:22:00,64.0,50.0,-100.00,NNE,14,0.0,0.0,61,0.00,,,0.00,0.000000,,2013-09-18 07:22:00,
2013-09-18 00:32:00,64.0,50.0,-100.00,NNE,14,0.0,0.0,61,0.00,,,0.00,0.000000,,2013-09-18 07:32:00,
2013-09-18 00:42:00,64.0,50.0,-100.00,NNE,14,0.0,0.0,61,0.00,,,0.00,0.000000,,2013-09-18 07:42:00,
2013-09-18 00:52:00,64.0,50.0,-100.00,NNE,14,0.0,0.0,61,0.00,,,0.00,0.000000,,2013-09-18 07:52:00,
2013-09-18 01:02:00,64.0,50.0,-100.00,NNE,14,0.0,0.0,61,0.00,,,0.00,0.000000,,2013-09-18 08:02:00,
2013-09-18 01:23:00,63.0,49.0,-100.00,North,9,0.0,0.0,61,0.00,,,0.00,0.000000,,2013-09-18 08:23:00,
2013-09-18 01:32:00,63.0,49.0,-100.00,North,9,0.0,0.0,61,0.00,,,0.00,0.000000,,2013-09-18 08:32:00,
2013-09-18 01:42:00,63.0,49.0,-100.00,North,9,0.0,0.0,61,0.00,,,0.00,0.000000,,2013-09-18 08:42:00,
2013-09-18 01:52:00,63.0,49.0,-100.00,North,9,0.0,0.0,61,0.00,,,0.00,0.000000,,2013-09-18 08:52:00,
2013-09-18 02:02:00,63.0,49.0,-100.00,North,9,0.0,0.0,61,0.00,,,0.00,0.000000,,2013-09-18 09:02:00,
2013-09-18 02:03:00,63.0,49.0,-100.00,North,5,0.0,0.0,61,0.00,,,0.00,0.000000,,2013-09-18 09:03:00,
2013-09-18 02:22:00,63.0,49.0,-100.00,North,5,0.0,0.0,61,0.00,,,0.00,0.000000,,2013-09-18 09:22:00,
2013-09-18 02:33:00,63.0,49.0,-100.00,North,5,0.0,0.0,61,0.00,,,0.00,0.000000,,2013-09-18 09:33:00,
2013-09-18 02:43:00,63.0,49.0,-100.00,North,5,0.0,0.0,61,0.00,,,0.00,0.000000,,2013-09-18 09:43:00,
2013-09-18 02:53:00,63.0,49.0,-100.00,North,5,0.0,0.0,61,0.00,,,0.00,0.000000,,2013-09-18 09:53:00,
2013-09-18 03:23:00,62.0,49.0,-100.00,North,3,0.0,0.0,62,0.00,,,0.00,0.000000,,2013-09-18 10:23:00,
2013-09-18 03:33:00,62.0,49.0,-100.00,North,3,0.0,0.0,62,0.00,,,0.00,0.000000,,2013-09-18 10:33:00,
2013-09-18 03:43:00,62.0,49.0,-100.00,North,3,0.0,0.0,62,0.00,,,0.00,0.000000,,2013-09-18 10:43:00,
2013-09-18 03:53:00,62.0,49.0,-100.00,North,3,0.0,0.0,62,0.00,,,0.00,0.000000,,2013-09-18 10:53:00,
2013-09-18 04:02:00,62.0,49.0,-100.00,North,3,0.0,0.0,62,0.00,,,0.00,0.000000,,2013-09-18 11:02:00,
2013-09-18 04:22:00,61.0,49.0,-100.00,North,1,0.0,0.0,64,0.00,,,0.00,0.000000,,2013-09-18 11:22:00,
2013-09-18 04:33:00,61.0,49.0,-100.00,North,1,0.0,0.0,64,0.00,,,0.00,0.000000,,2013-09-18 11:33:00,
2013-09-18 04:42:00,61.0,49.0,-100.00,North,1,0.0,0.0,64,0.00,,,0.00,0.000000,,2013-09-18 11:42:00,
2013-09-18 04:52:00,61.0,49.0,-100.00,North,1,0.0,0.0,64,0.00,,,0.00,0.000000,,2013-09-18 11:52:00,
2013-09-18 05:01:00,61.0,49.0,-100.00,North,1,0.0,0.0,64,0.00,,,0.00,0.000000,,2013-09-18 12:01:00,
2013-09-18 05:43:00,61.0,49.0,-100.00,North,0,0.0,0.0,65,0.00,,,-99.99,0.000000,,2013-09-18 12:43:00,
2013-09-18 05:52:00,61.0,49.0,-100.00,North,0,0.0,0.0,65,0.00,,,-99.99,0.000000,,2013-09-18 12:52:00,
2013-09-18 06:01:00,61.0,49.0,-100.00,North,0,0.0,0.0,65,0.00,,,-99.99,0.000000,,2013-09-18 13:01:00,
2013-09-18 20:03:00,62.0,41.0,-100.00,North,2,0.0,0.0,46,0.00,,,0.00,0.000000,,2013-09-19 03:03:00,
2013-09-18 21:01:00,62.0,41.0,-100.00,North,2,0.0,0.0,46,0.00,,,0.00,0.000000,,2013-09-19 04:01:00,
2013-09-18 21:03:00,63.0,36.0,-100.00,North,1,0.0,0.0,37,0.00,,,0.00,0.000000,,2013-09-19 04:03:00,
2013-09-18 21:25:00,63.0,36.0,-100.00,North,1,0.0,0.0,37,0.00,,,0.00,0.000000,,2013-09-19 04:25:00,
2013-09-18 21:34:00,63.0,36.0,-100.00,North,1,0.0,0.0,37,0.00,,,0.00,0.000000,,2013-09-19 04:34:00,
2013-09-18 21:44:00,63.0,36.0,-100.00,North,1,0.0,0.0,37,0.00,,,0.00,0.000000,,2013-09-19 04:44:00,
2013-09-18 21:54:00,63.0,36.0,-100.00,North,1,0.0,0.0,37,0.00,,,0.00,0.000000,,2013-09-19 04:54:00,
2013-09-18 22:23:00,63.0,37.0,-100.00,North,358,0.0,0.0,38,0.00,,,0.00,0.000000,,2013-09-19 05:23:00,
2013-09-18 22:34:00,63.0,37.0,-100.00,North,358,0.0,0.0,38,0.00,,,0.00,0.000000,,2013-09-19 05:34:00,
2013-09-18 22:43:00,63.0,37.0,-100.00,North,358,0.0,0.0,38,0.00,,,0.00,0.000000,,2013-09-19 05:43:00,
2013-09-18 22:52:00,63.0,37.0,-100.00,North,358,0.0,0.0,38,0.00,,,0.00,0.000000,,2013-09-19 05:52:00,
2013-09-18 23:02:00,63.0,37.0,-100.00,North,358,0.0,0.0,38,0.00,,,0.00,0.000000,,2013-09-19 06:02:00,
2013-09-18 23:22:00,59.0,36.0,-100.00,NNE,12,0.0,0.0,42,0.00,,,0.00,0.000000,,2013-09-19 06:22:00,
2013-09-18 23:32:00,59.0,36.0,-100.00,NNE,12,0.0,0.0,42,0.00,,,0.00,0.000000,,2013-09-19 06:32:00,
2013-09-18 23:43:00,59.0,36.0,-100.00,NNE,12,0.0,0.0,42,0.00,,,0.00,0.000000,,2013-09-19 06:43:00,
2013-09-18 23:52:00,59.0,36.0,-100.00,NNE,12,0.0,0.0,42,0.00,,,0.00,0.000000,,2013-09-19 06:52:00,